Regional Weather Roundup
Issued by NWS

Home | Current Version | Previous Version | Text Only | Print | Product List | Glossary On
Versions: 1 2 3 4 5 6 7 8 9 10 11 12 13 14 15 16 17 18 19 20 21 22 23 24 25 26 27 28 29 30 31 32 33 34 35 36 37 38 39 40 41 42 43 44 45 46 47 48 49 50
354
ASUS43 KLMK 111510
RWRKY
KENTUCKY REGIONAL WEATHER ROUNDUP
NATIONAL WEATHER SERVICE LOUISVILLE KY
1000 AM EST THU FEB 11 2016

NOTE "FAIR" INDICATES FEW OR NO CLOUDS BELOW 12,000 FEET
WITH NO SIGNIFICANT WEATHER AND/OR OBSTRUCTIONS TO VISIBILITY.

KYZ001>023-026-027-061>063-070>075-111600-
WESTERN AND SOUTH CENTRAL KENTUCKY

CITY           SKY/WX    TMP DP  RH WIND       PRES   REMARKS
PADUCAH        CLOUDY    28  21  75 NE10      30.27R WCI  19
HENDERSON      CLOUDY    25  16  68 NE10      30.30R WCI  15
OWENSBORO      CLOUDY    24  18  78 NE9       30.31R WCI  14
HOPKINSVILLE   CLOUDY    26  21  79 E7        30.25S WCI  19
BOWLING GREEN  CLOUDY    28  19  69 NE5       30.28S WCI  23
GLASGOW        CLOUDY    27  19  71 E3        30.26S
$$

KYZ024-025-028>034-038-045-046-053-111600-
NORTH CENTRAL KENTUCKY

CITY           SKY/WX    TMP DP  RH WIND       PRES   REMARKS
LOUISVILLE/SDF MOSUNNY   24   8  50 CALM      30.31R
LOUISVILLE/LOU SUNNY     23   9  55 CALM      30.31R
FORT KNOX      CLOUDY    22  13  68 N6        30.27R WCI  14
$$

KYZ035>037-039>044-047>052-055>060-089>105-111600-
NORTHEAST KENTUCKY

CITY           SKY/WX    TMP DP  RH WIND       PRES   REMARKS
LEXINGTON      SUNNY     20   9  62 CALM      30.27R
COVINGTON      MOSUNNY   17   6  62 NW7       30.27R WCI   8
FRANKFORT        N/A     21   8  57 N3        30.28R
$$

KYZ054-064>069-076>088-106>120-111600-
SOUTHEAST KENTUCKY

CITY           SKY/WX    TMP DP  RH WIND       PRES   REMARKS
JACKSON        PTSUNNY   19   9  65 CALM      30.23R
LONDON         CLOUDY    22  13  68 CALM      30.24R
SOMERSET       CLOUDY    23  16  74 CALM      30.27S
MIDDLESBORO    CLOUDY    25  17  69 CALM      30.24R
MONTICELLO     CLOUDY    26  18  71 VRB5      30.26S WCI  20
$$





USA.gov is the U.S. government's official web portal to all federal, state and local government web resources and services.